LATINSAT A

Satellite information

Favourite Embed

Satellite Type and Status

PAYLOADIN ORBIT

Key statistics

Satellite LATINSAT A at a glance.

Uptime

8298

Days in orbit

Revolutions

≈ 14.8

Per day

Orbit

LEO

Low Earth Orbit

Inclination

64.6

Latest

Satellite identification and parameters

Extended collection of information and parameters for LATINSAT A.

Object identification

Identified? True

Debris? False

Object name: LATINSAT A

International designator: 2002-058H

Object number (NORAD): 27612

Object ID (CCSDS): 27612

Country: ARGENTINA (ARGN)

Current information (Y/N): Y

RCS size: SMALL

Orbital parameters

Period: 96.999 minutes

Inclination: 64.5538 deg

SMA: 6993.123 km

Apoapsis: 653.236 km

Periapsis: 576.739 km

RAAN: 117.7989 deg

Eccentricy: 0.00546945

Argument of periapsis: 290.269 deg

Mean anomaly: 69.2542 deg

Mean motion: 14.84554076 rev/day

Mean motion (dot): 0.00001214 rev/day2

B* drag term: 0.00015763605 1/REarth

Two-line elements (TLE)

Creation date: Sept. 8, 2025, 3:16 a.m.

Reference frame: TEME

Reference center: EARTH

Epoch: Sept. 7, 2025, 8:49 p.m. UTC

TLE line 0: 0 LATINSAT A

TLE line 1: 1 27612U 02058H 25250.86778291 .00001214 00000-0 15764-3 0 9999

TLE line 2: 2 27612 64.5538 117.7989 0054694 290.2690 69.2542 14.84554076225707

Live tracking on map

Real-time ground track for satellite LATINSAT A.

In-orbit conjunctions

There are no conjunctions computed for LATINSAT A, at the moment. Check back to stay up to date, as we update our databases every day.

Go to all conjunctions

Associated space launch

Technology satellite for OHB-System, Germany.

LATINSAT A was lifted into orbit during the mission ‘Dnepr | AATiS-OSCAR-49’, on board a Dnepr space rocket.

The launch took place on Dec. 20, 2002, 5 p.m. from 109/95.

For more information about the launch, click the button.

Launch to space Dnepr | AATiS-OSCAR-49
Dnepr | AATiS-OSCAR-49

Agency: N/A

Status: Launch Successful

Launch date: Dec. 20, 2002, 5 p.m. UTC

Rocket: Dnepr

Launch pad: 109/95

Location: Baikonur Cosmodrome, Republic of Kazakhstan

...

Latest news about this satellite

There are no fresh news available about this satellite. Check back as we update our databases every day.


Newsletter sign-up

Weekly statistics, charts and insights to help you stay on top of the space industry.